Hourly Data Report for October 02, 2017

All times are specified in Local Standard Time (LST). Add 1 hour to adjust for Daylight Saving Time where and when it is observed.

LONDON CS
ONTARIO

43°02'00.000" N
81°09'00.000" W
278.00 m
6144478
71622
WSN

Download Data

Hourly Data (October 2017)
Hourly Data Report for October 2, 2017
Temp Definition
°C
Dew Point Temp Definition
°C
Rel Hum Definition
%
Wind Dir Definition
10's deg

Wind Spd Definition
km/h
Visibility Definition
km
Stn Press Definition
kPa
Hmdx Definition


Wind Chill Definition


Weather Definition


TIME
00:00 7.2 1.7 68 LegendMM LegendMM   99.32     LegendNANA
01:00 6.8 2.1 72 LegendMM LegendMM   99.31     LegendNANA
02:00 6.6 2.8 77 LegendMM LegendMM   99.31     LegendNANA
03:00 6.8 3.9 81 LegendMM LegendMM   99.31     LegendNANA
04:00 6.9 4.4 84 LegendMM LegendMM   99.33     LegendNANA
05:00 6.6 4.2 85 LegendMM LegendMM   99.39     LegendNANA
06:00 6.7 4.0 83 LegendMM LegendMM   99.43     LegendNANA
07:00 7.1 5.0 87 LegendMM LegendMM   99.50     LegendNANA
08:00 10.4 6.7 78 LegendMM LegendMM   99.52     LegendNANA
09:00 13.9 8.8 71 LegendMM LegendMM   99.53     LegendNANA
10:00 16.8 9.7 63 LegendMM LegendMM   99.57     LegendNANA
11:00 18.6 8.7 52 LegendMM LegendMM   99.56     LegendNANA
12:00 20.6 7.8 44 LegendMM LegendMM   99.54     LegendNANA
13:00 21.6 7.5 40 LegendMM LegendMM   99.49     LegendNANA
14:00 22.0 2.7 28 LegendMM LegendMM   99.47     LegendNANA
15:00 21.9 3.0 29 LegendMM LegendMM   99.43     LegendNANA
16:00 20.8 4.5 34 LegendMM LegendMM   99.45     LegendNANA
17:00 19.2 4.5 38 LegendMM LegendMM   99.45     LegendNANA
18:00 16.6 4.0 43 LegendMM LegendMM   99.50     LegendNANA
19:00 15.2 4.4 48 LegendMM LegendMM   99.50     LegendNANA
20:00 13.7 5.3 57 LegendMM LegendMM   99.54     LegendNANA
21:00 12.7 6.5 66 LegendMM LegendMM   99.57     LegendNANA
22:00 11.6 8.2 80 LegendMM LegendMM   99.58     LegendNANA
23:00 10.3 7.7 84 LegendMM LegendMM   99.57     LegendNANA

Notes on Data Quality.

Legend

  • E = Estimated
  • M = Missing
  • NA = Not Available
  • ‡ = Partner data that is not subject to review by the National Climate Archives
Date modified: